Location: Unspecified
(0.0000°N, 0.0000°E)
Time: 10:33:26
(UTC+00:00)

PCSat - Pass Details

Date: 09 December 2017
Orbit: 784 x 796 km, 67.1° (Epoch: 22 June)

Event Time Altitude Azimuth Distance (km) Brightness Sun altitude
Rises 19:22:06 0° 224° (SW) 3,281 14.0 -20.5°
Reaches altitude 10° 19:24:59 10° 239° (WSW) 2,347 13.2 -21.2°
Maximum altitude 19:29:08 23° 289° (WNW) 1,630 11.7 -22.1°
Drops below altitude 10° 19:33:17 10° 340° (NNW) 2,334 11.9 -23.1°
Enters shadow 19:34:47 - 349° (N) 2,796 12.3 -23.4°
